"2022-11-25 00:01:00",3216645,5.340667,160.8642,5.288398,0.454862,6.24,0,4.144667,162.4606,6.191251,0.5641851,5.06,0,-999,0,7.9,90.9,7.994,7.973,0.2,0,0,8.82,13.22,0.2,101.0713,3.406,3.407,3.406,100,0,0.03,0.027,430.1,168.6,168.4
"2022-11-25 00:02:00",3216646,5.401333,159.735,4.153861,0.5754982,6.47,0,3.807333,158.5415,6.295976,0.4267,4.39,0,-999,0,7.86,91.3,7.979,7.94,0.2,0,0,8.82,13.23,0.2,101.0703,3.406,3.406,3.404,100,0,0.03,0.028,430.1,168.6,168.4
"2022-11-25 00:03:00",3216647,5.383334,160.7332,2.767825,0.522477,6.13,0,3.594,159.7373,5.565338,0.4439489,4.72,0,-999,0,7.833,91.3,7.981,7.922,0.2,0,0,8.81,13.22,0.2,101.0646,3.403,3.406,3.403,100,0,0.07,0.071,430.2,168.6,168.5
"2022-11-25 00:04:00",3216648,5.306,159.3337,3.456739,0.430454,5.75,0,3.842,156.1322,5.594508,0.5545473,4.86,0,-999,0,7.807,91.5,7.958,7.922,0.2,0,0,8.81,13.23,0.2,101.0659,3.403,3.404,3.403,100,0,0.04,0.043,430.2,168.7,168.5
"2022-11-25 00:05:00",3216649,5.865333,163.1316,5.472862,0.6039522,6.78,0,3.726667,161.736,4.609955,0.4678128,4.5,0,-999,0,7.813,91.5,7.958,7.92,0.2,0,0,8.81,13.23,0.2,101.0666,3.402,3.403,3.401,100,0,0.03,0.031,430.2,168.7,168.5
"2022-11-25 00:06:00",3216650,5.248666,158.7989,3.744749,0.4560243,5.99,0,4.056666,160.7321,4.849703,0.4420055,4.95,0,-999,0,7.893,91.3,7.978,7.949,0.2,0,0,8.81,13.21,0.2,101.0633,3.401,3.402,3.401,100,0,0.06,0.058,430.3,168.7,168.6
"2022-11-25 00:07:00",3216651,6.016667,161.2642,4.624304,0.5411797,6.87,0,3.607333,157.9229,6.769086,0.5846192,4.88,0,-999,0,7.9,91.1,7.978,7.982,0.2,0,0,8.81,13.23,0.2,101.059,3.4,3.401,3.4,100,0,0.03,0.032,430.3,168.8,168.6
"2022-11-25 00:08:00",3216652,5.212667,158.3331,3.217337,0.5098165,5.97,0,4.003333,157.5322,6.17014,0.4867945,4.73,0,-999,0,7.9,91.1,7.975,7.994,0.2,0,0,8.81,13.22,0.2,101.0595,3.399,3.4,3.399,100,0,0.03,0.024,430.3,168.8,168.6
"2022-11-25 00:09:00",3216653,4.748667,159.131,3.574328,0.7485618,6.39,0,3.910667,159.6578,7.102283,0.46781,4.85,0,-999,0,7.893,91.8,7.97,7.955,0.2,0,0,8.81,13.21,0.2,101.0611,3.399,3.399,3.398,100,0,0.02,0.024,430.4,168.8,168.7
"2022-11-25 00:10:00",3216654,4.8,160.6006,3.877099,0.4819128,5.66,0,4.179333,159.2015,5.830386,0.652906,5.17,0,-999,0,7.813,92.1,7.961,7.92,0.2,0,0,8.81,13.22,0.2,101.0598,3.398,3.399,3.397,100,0,0.02,0.021,430.4,168.8,168.7
"2022-11-25 00:11:00",3216655,4.501333,160.4669,4.614771,0.4169711,5.39,0,3.874667,159.997,6.539784,0.5788136,5,0,-999,0,7.8,92.3,7.943,7.917,0.2,0,0,8.81,13.22,0.2,101.0579,3.397,3.398,3.397,100,0,0.03,0.026,430.4,168.8,168.7
"2022-11-25 00:12:00",3216656,4.712667,159.1326,4.868506,0.3580403,5.29,0,3.890667,159.4673,5.401092,0.4702831,4.47,0,-999,0,7.8,92.3,7.937,7.906,0.2,0,0,8.81,13.24,0.2,101.0587,3.397,3.397,3.397,100,0,0.05,0.051,430.5,168.8,168.8
"2022-11-25 00:13:00",3216657,4.711333,158.4637,4.895905,0.4043408,5.49,0,3.722667,156.2717,5.765176,0.6370501,5.22,0,-999,0,7.8,92.3,7.917,7.885,0.2,0,0,8.81,13.23,0.2,101.0575,3.396,3.397,3.396,100,0,0.02,0.024,430.5,168.9,168.8
"2022-11-25 00:14:00",3216658,4.527333,154.1875,5.079853,0.7692114,6.04,0,3.823333,156.0693,5.695219,0.6031657,5.27,0,-999,0,7.8,92.4,7.906,7.885,0.2,0,0,8.81,13.21,0.2,101.0564,3.395,3.396,3.395,100,0,0.03,0.031,430.5,168.9,168.8
"2022-11-25 00:15:00",3216659,4.865333,153.5302,5.09434,0.5289974,5.89,0,3.326,152.6684,3.892285,0.4001633,3.86,0,-999,0,7.8,92.5,7.901,7.889,0.2,0,0,8.81,13.24,0.2,101.0554,3.394,3.395,3.394,100,0,0,0.001,430.5,168.9,168.8
"2022-11-25 00:16:00",3216660,4.71,157.9344,4.403086,0.4960914,5.67,0,3.344667,160.3298,5.811467,0.438039,4.35,0,-999,0,7.8,92.6,7.903,7.886,0.2,0,0,8.81,13.23,0.2,101.055,3.394,3.395,3.394,100,0,0.03,0.022,430.5,168.9,168.8
"2022-11-25 00:17:00",3216661,4.81,159.7347,5.395601,0.4261926,5.38,0,3.294667,159.4016,4.269438,0.49116,4.2,0,-999,0,7.8,92.6,7.894,7.887,0.2,0,0,8.81,13.22,0.2,101.0517,3.393,3.394,3.393,100,0,0,0,430.5,168.9,168.9
"2022-11-25 00:18:00",3216662,4.743333,156.8068,4.485951,0.7258894,5.96,0,3.915333,156.3264,6.347205,0.5785713,4.74,0,-999,0,7.8,92.5,7.897,7.89,0.2,0,0,8.82,13.24,0.2,101.046,3.393,3.393,3.393,100,0,0.02,0.02,430.6,168.9,168.9
"2022-11-25 00:19:00",3216663,4.846667,160.2677,3.784063,0.4895258,5.75,0,4.138,159.2001,5.060872,0.5101138,4.82,0,-999,0,7.86,92,7.907,7.919,0.2,0,0,8.81,13.22,0.2,101.0454,3.392,3.393,3.392,100,0,0,0,430.6,169,168.9
"2022-11-25 00:20:00",3216664,4.883333,157.4634,4.49877,0.4510235,5.55,0,3.882,155.5285,4.770809,0.4314193,4.52,0,-999,0,7.8,92.5,7.894,7.897,0.2,0,0,8.81,13.22,0.2,101.0487,3.392,3.392,3.391,100,0,0.02,0.022,430.6,169,168.9
"2022-11-25 00:21:00",3216665,4.500666,153.2685,4.696573,0.3615608,5.11,0,3.686667,148.7344,5.195098,0.4767203,4.22,0,-999,0,7.8,92.7,7.894,7.883,0.2,0,0,8.81,13.24,0.2,101.0487,3.391,3.392,3.39,100,0,0,0,430.6,169,168.9
"2022-11-25 00:22:00",3216666,4.44,151.7267,6.337257,0.4248921,5.13,0,3.888,151.2673,5.408434,0.4441501,4.77,0,-999,0,7.8,92.8,7.893,7.883,0.2,0,0,8.81,13.22,0.2,101.0478,3.39,3.39,3.39,100,0,0.02,0.023,430.6,169,168.9
"2022-11-25 00:23:00",3216667,4.632667,152.5262,6.330398,0.321755,5.28,0,3.698,155.3366,5.788588,0.5711531,4.69,0,-999,0,7.8,92.8,7.894,7.883,0.2,0,0,8.81,13.24,0.2,101.0479,3.39,3.39,3.389,100,0,0.02,0.024,430.6,169.1,168.9
"2022-11-25 00:24:00",3216668,4.482666,152.666,4.481349,0.7214658,5.71,0,3.536667,155.1429,6.566682,0.4654269,4.5,0,-999,0,7.8,92.7,7.894,7.889,0.2,0,0,8.81,13.22,0.2,101.0399,3.388,3.389,3.388,100,0,0.03,0.024,430.7,169.1,169
"2022-11-25 00:25:00",3216669,4.398,159.7343,5.696014,0.4811541,5.43,0,4.122,160.0701,5.87914,0.5086216,4.91,0,-999,0,7.813,92.5,7.897,7.909,0.2,0,0,8.81,13.24,0.2,101.0431,3.389,3.389,3.388,100,0,0.02,0.025,430.7,169.1,169
"2022-11-25 00:26:00",3216670,4.987333,161.0003,4.210013,0.4239256,5.86,0,3.657333,161.335,4.655365,0.4211012,4.26,0,-999,0,7.82,92.5,7.905,7.922,0.2,0,0.254,8.81,13.25,0.2,101.043,3.389,3.389,3.388,100,0,0.04,0.036,430.7,169.1,169
"2022-11-25 00:27:00",3216671,4.493333,157.9317,3.677614,0.327387,5.06,0,3.652,157.8674,5.068915,0.4719068,4.64,0,-999,0,7.813,92.7,7.901,7.919,0.2,0,0,8.81,13.21,0.2,101.0425,3.387,3.389,3.387,100,0,0.03,0.026,430.8,169.1,169
"2022-11-25 00:28:00",3216672,4.254,153.7326,2.814939,0.4009954,4.82,0,3.029333,153.9336,4.850291,0.4349937,3.97,0,-999,0,7.8,92.8,7.894,7.901,0.2,0,0,8.81,13.23,0.2,101.0419,3.387,3.388,3.387,100,0,0.02,0.023,430.8,169.1,169.1
"2022-11-25 00:29:00",3216673,4.484667,153.2668,4.492343,0.4005308,5.2,0,3.568,155.1366,4.20747,0.3221635,4.08,0,-999,0,7.8,92.9,7.894,7.89,0.2,0,0,8.81,13.23,0.2,101.0432,3.385,3.387,3.385,100,0,0.02,0.02,430.8,169.1,169.1
"2022-11-25 00:30:00",3216674,4.224,154.9978,3.202797,0.4914035,5.42,0,3.233333,154.999,6.163099,0.3088185,3.8,0,-999,0,7.8,92.9,7.894,7.897,0.2,0,0,8.81,13.22,0.2,101.0454,3.385,3.385,3.385,100,0,0,0,430.8,169.1,169.1
"2022-11-25 00:31:00",3216675,4.348,149.8687,4.868789,0.2832479,4.76,0,3.06,151.597,3.928209,0.3621601,3.58,0,-999,0,7.8,92.9,7.894,7.891,0.2,0,0,8.81,13.23,0.2,101.0387,3.384,3.385,3.384,100,0,0.02,0.021,430.8,169.1,169.1
"2022-11-25 00:32:00",3216676,4.224,149.1318,3.86104,0.2836853,4.6,0,3.191334,151.9299,4.371307,0.4885744,3.97,0,-999,0,7.8,92.8,7.893,7.9,0.2,0,0,8.82,13.23,0.2,101.0417,3.384,3.384,3.384,100,0,0,0,430.8,169.1,169.1
"2022-11-25 00:33:00",3216677,3.861333,152.4045,4.893213,0.3307742,4.41,0,3.179333,151.1237,7.266976,0.5524547,4.11,0,-999,0,7.8,93.1,7.894,7.887,0.2,0,0,8.83,13.23,0.2,101.0392,3.384,3.384,3.383,100,0,0,0,430.8,169.1,169.1
"2022-11-25 00:34:00",3216678,3.926666,149.5296,4.825775,0.3802397,4.42,0,3.030667,149.136,7.110223,0.3310684,3.72,0,-999,0,7.8,92.9,7.894,7.889,0.2,0,0,8.83,13.23,0.2,101.0416,3.383,3.384,3.383,100,0,0,0,430.8,169.1,169.1
"2022-11-25 00:35:00",3216679,4.017333,147.4711,5.758007,0.3507224,4.63,0,3.446,147.6692,5.026792,0.8169357,5.22,0,-999,0,7.8,92.9,7.891,7.885,0.2,0,0,8.83,13.23,0.2,101.0409,3.383,3.383,3.383,100,0,0,0,430.8,169.1,169.1
"2022-11-25 00:36:00",3216680,4.404,149.132,4.423702,0.576909,5.29,0,3.472667,148.3987,3.89458,0.4610634,4.42,0,-999,0,7.8,92.9,7.882,7.886,0.2,0,0,8.83,13.22,0.2,101.0384,3.383,3.383,3.382,100,0,0,0,430.8,169.1,169.1
"2022-11-25 00:37:00",3216681,4.032,151.467,4.424813,0.4207643,4.7,0,3.236667,151.9281,6.284832,0.3584535,3.9,0,-999,0,7.8,93,7.866,7.869,0.2,0,0,8.83,13.22,0.2,101.043,3.383,3.383,3.382,100,0,0,0,430.8,169.1,169.1
"2022-11-25 00:38:00",3216682,4.738667,148.9332,2.351332,0.592541,6.07,0,3.614,151.189,5.617918,0.5466235,4.5,0,-999,0,7.767,93.2,7.862,7.865,0.2,0,0,8.83,13.23,0.2,101.0428,3.382,3.383,3.382,100,0,0,0,430.8,169.1,169.1
"2022-11-25 00:39:00",3216683,4.586667,148.7326,5.168372,0.3675444,5.08,0,3.476667,149.0016,6.438089,0.4230944,4.15,0,-999,0,7.8,92.6,7.879,7.883,0.2,0,0,8.83,13.23,0.2,101.0348,3.382,3.382,3.382,100,0,0,0,430.8,169.1,169.1
"2022-11-25 00:40:00",3216684,4.468,149.1356,5.873988,0.3792484,5,0,3.537333,148.9948,5.449289,0.5164297,4.48,0,-999,0,7.8,92.7,7.882,7.887,0.2,0,0,8.83,13.22,0.2,101.0398,3.381,3.382,3.381,100,0,0,0,430.8,169.1,169.1
"2022-11-25 00:41:00",3216685,4.548667,146.6055,4.907143,0.5244027,5.2,0,3.285333,144.8582,6.625992,0.5842701,4.64,0,-999,0,7.8,92.9,7.878,7.882,0.2,0,0,8.83,13.22,0.2,101.0385,3.381,3.381,3.381,100,0,0,0,430.8,169.1,169.1
"2022-11-25 00:42:00",3216686,4.468667,147.6563,5.177942,0.4774497,5.48,0,3.012,149.9863,6.970623,0.3384711,3.65,0,-999,0,7.8,93.1,7.869,7.868,0.2,0,0,8.83,13.21,0.2,101.0311,3.38,3.381,3.38,100,0,0,0,430.8,169.1,169.1
"2022-11-25 00:43:00",3216687,5.081334,152.6018,4.175109,0.6393421,6.09,0,3.088,149.9976,6.150533,0.2722793,3.54,0,-999,0,7.8,93.2,7.87,7.865,0.2,0,0,8.83,13.22,0.2,101.0372,3.38,3.38,3.38,100,0,0,0,430.8,169.1,169.1
"2022-11-25 00:44:00",3216688,4.862667,150.9347,3.905704,0.5417929,5.8,0,3.616,151.3313,4.741204,0.3772497,4.06,0,-999,0,7.8,92.4,7.893,7.912,0.2,0,0,8.83,13.23,0.2,101.0377,3.38,3.38,3.38,100,0,0.03,0.032,430.8,169.1,169.1
"2022-11-25 00:45:00",3216689,4.576,152.0639,4.551719,0.6836548,5.5,0,3.164,151.2062,6.077488,0.3099634,3.87,0,-999,0,7.8,92.6,7.894,7.912,0.2,0,0,8.83,13.19,0.2,101.0354,3.38,3.38,3.38,100,0,0,0,430.8,169.1,169.1
"2022-11-25 00:46:00",3216690,3.288,152.2017,5.126826,0.3147528,3.78,0,3.918667,151.8615,5.654076,0.456886,4.76,0,-999,0,7.8,93,7.889,7.9,0.2,0,0,8.83,13.22,0.2,101.0356,3.379,3.38,3.379,100,0,0,0,430.8,169.2,169.1
"2022-11-25 00:47:00",3216691,4.106667,150.4636,5.056534,0.5429386,5.09,0,2.888,151.538,5.788894,0.447455,3.88,0,-999,0,7.8,93.3,7.878,7.873,0.2,0,0,8.83,13.23,0.2,101.0415,3.379,3.379,3.379,100,0,0,0,430.8,169.2,169.1
"2022-11-25 00:48:00",3216692,4.674667,152.8697,4.143872,0.5084075,5.54,0,3.037333,152.7989,5.875046,0.274529,3.56,0,-999,0,7.8,92.9,7.88,7.877,0.2,0,0,8.83,13.21,0.2,101.0399,3.379,3.379,3.379,100,0,0,0,430.8,169.2,169.1
"2022-11-25 00:49:00",3216693,4.618667,152.7331,4.417634,0.5072654,5.76,0,2.951334,151.5993,3.773051,0.3646892,3.75,0,-999,0,7.8,92.7,7.883,7.886,0.2,0,0,8.83,13.22,0.2,101.0345,3.379,3.379,3.378,100,0,0,0,430.8,169.2,169.1
"2022-11-25 00:50:00",3216694,4.538,144.2642,4.169883,0.427679,5.12,0,3.702,144.5362,5.734266,0.5553882,4.58,0,-999,0,7.8,92.8,7.892,7.895,0.2,0,0,8.83,13.23,0.2,101.0294,3.378,3.379,3.378,100,0,0,0,430.8,169.2,169.1
"2022-11-25 00:51:00",3216695,5.052666,142.4666,2.093159,0.2773318,5.53,0,3.614,143.4009,4.376272,0.5712653,4.56,0,-999,0,7.8,92.7,7.894,7.906,0.2,0,0,8.83,13.22,0.2,101.0322,3.378,3.378,3.377,100,0,0,0,430.8,169.2,169.2
"2022-11-25 00:52:00",3216696,4.32,140.6683,3.475558,0.3213098,4.98,0,3.959333,145.0004,5.005039,0.5534797,5.16,0,-999,0,7.8,93,7.894,7.908,0.2,0,0,8.83,13.22,0.2,101.0287,3.377,3.378,3.377,100,0,0.02,0.02,430.9,169.2,169.2
"2022-11-25 00:53:00",3216697,4.726,146.0635,3.870562,0.6761833,5.77,0,3.433333,143.2668,4.877347,0.3205551,3.98,0,-999,0,7.8,93.6,7.894,7.878,0.2,0,0,8.83,13.21,0.2,101.0314,3.377,3.377,3.377,100,0,0,0,430.9,169.2,169.2
"2022-11-25 00:54:00",3216698,3.884666,148.3951,5.373672,0.5830708,5.3,0,3.485333,146.7986,4.306733,0.4483877,4.41,0,-999,0,7.8,93.5,7.894,7.874,0.2,0,0,8.83,13.21,0.2,101.0341,3.376,3.377,3.376,100,0,0,0,430.9,169.2,169.2
"2022-11-25 00:55:00",3216699,4.646667,144.9934,4.468941,0.5648205,5.6,0,3.808,143.734,4.153601,0.4606257,4.67,0,-999,0,7.793,93.9,7.888,7.863,0.2,0,0,8.83,13.23,0.2,101.0294,3.376,3.377,3.376,100,0,0.03,0.03,430.9,169.2,169.2
"2022-11-25 00:56:00",3216700,5.066,144.1333,2.629483,0.4426707,5.9,0,3.360667,143.667,3.735224,0.5615985,4.16,0,-999,0,7.793,93.4,7.885,7.864,0.2,0,0,8.83,13.22,0.2,101.0299,3.376,3.376,3.376,100,0,0,0.001,430.9,169.2,169.2
"2022-11-25 00:57:00",3216701,4.694666,146.3328,3.299049,0.4952423,5.45,0,3.085333,146.0032,4.484724,0.363664,4.22,0,-999,0,7.8,93.4,7.885,7.864,0.2,0,0,8.83,13.21,0.2,101.0293,3.375,3.376,3.375,100,0,0,0,430.9,169.2,169.2
"2022-11-25 00:58:00",3216702,5.297333,150.6671,3.570786,0.5524426,6.23,0,3.876667,147.9284,5.96996,0.7912241,4.84,0,-999,0,7.8,93.6,7.893,7.878,0.2,0,0,8.83,13.23,0.2,101.0281,3.375,3.376,3.375,100,0,0,0,430.9,169.2,169.2
"2022-11-25 00:59:00",3216703,4.930666,149.666,5.028024,0.5014175,5.59,0,3.848,148.9312,4.005842,0.6525151,4.77,0,-999,0,7.8,93.4,7.896,7.901,0.2,0,0,8.83,13.21,0.2,101.0301,3.375,3.375,3.375,100,0,0,0,430.9,169.2,169.2
"2022-11-25 01:00:00",3216704,4.756,145.7982,4.133977,0.4160897,5.69,0,4.086,148.0045,6.373056,0.6960248,5.2,0,-999,0,7.8,93.3,7.896,7.921,0.2,0,0,8.83,13.21,0.2,101.0309,3.375,3.375,3.374,100,0,0,0,430.9,169.2,169.2
"2022-11-25 01:01:00",3216705,4.906,143.7327,3.086534,0.5108007,5.9,0,3.224,144.3339,5.039987,0.3783966,4.22,0,-999,0,7.8,93.3,7.905,7.924,0.2,0,0,8.83,13.21,0.2,101.0268,3.373,3.375,3.373,100,0,0.02,0.02,430.9,169.2,169.2
"2022-11-25 01:02:00",3216706,4.478667,144.5972,4.110488,0.3405656,5.25,0,3.461333,146.5954,5.917059,0.341777,4.09,0,-999,0,7.8,93.6,7.901,7.918,0.2,0,0,8.83,13.22,0.2,101.0297,3.372,3.373,3.372,100,0,0,0,430.9,169.2,169.2
"2022-11-25 01:03:00",3216707,4.217333,147.3968,4.839634,0.3811992,5.08,0,3.646,144.1357,5.312804,0.6150749,4.96,0,-999,0,7.8,93.8,7.894,7.895,0.2,0,0,8.83,13.22,0.2,101.0281,3.372,3.373,3.372,100,0,0,0,430.9,169.2,169.2
"2022-11-25 01:04:00",3216708,4.566,148.0001,5.897578,0.4895141,5.29,0,3.852,147.7404,6.870376,0.6651636,5.38,0,-999,0,7.8,93.7,7.894,7.881,0.2,0,0,8.83,13.24,0.2,101.0256,3.372,3.372,3.372,100,0,0,0,430.9,169.2,169.2
"2022-11-25 01:05:00",3216709,4.496666,153.7335,3.171572,0.4241174,5.21,0,3.212666,155.8036,4.27583,0.5537926,4.24,0,-999,0,7.8,93.5,7.894,7.894,0.2,0,0,8.83,13.24,0.2,101.0278,3.372,3.372,3.371,100,0,0,0,430.9,169.2,169.2
"2022-11-25 01:06:00",3216710,4.360666,155.5326,4.895483,0.4771508,5.22,0,3.680667,151.3357,5.040884,0.7798586,5.19,0,-999,0,7.8,93.5,7.896,7.901,0.2,0,0,8.83,13.22,0.2,101.0264,3.372,3.372,3.372,100,0,0,0,430.9,169.2,169.2
"2022-11-25 01:07:00",3216711,4.651333,146.3997,2.360395,0.2879552,5.13,0,3.650666,148.9901,7.104777,0.5663152,4.63,0,-999,0,7.8,93.6,7.894,7.895,0.2,0,0,8.83,13.23,0.2,101.0263,3.372,3.372,3.371,100,0,0,0,430.9,169.2,169.2
"2022-11-25 01:08:00",3216712,4.419333,147.2579,5.913809,0.5450194,5.31,0,3.348,143.5273,6.265545,0.4271799,3.88,0,-999,0,7.8,93.4,7.894,7.901,0.2,0,0,8.83,13.23,0.2,101.0226,3.371,3.372,3.371,100,0,0,0,430.9,169.2,169.2
"2022-11-25 01:09:00",3216713,4.965333,148.5992,4.881459,0.5927998,5.88,0,4.040666,144.1992,4.069071,0.4845406,4.93,0,-999,0,7.813,92.9,7.902,7.922,0.2,0,0,8.83,13.22,0.2,101.0233,3.371,3.371,3.371,100,0,0,0,430.9,169.2,169.2
"2022-11-25 01:10:00",3216714,4.112,144.933,3.021079,0.4565845,4.98,0,3.398,142.7299,4.309994,0.5002425,3.99,0,-999,0,7.84,92.9,7.906,7.923,0.2,0,0,8.83,13.23,0.2,101.0213,3.371,3.371,3.371,100,0,0,0,430.9,169.2,169.2
"2022-11-25 01:11:00",3216715,4.145333,147.6675,4.947628,0.5725948,5.1,0,3.881333,145.1961,7.479039,0.5852848,5.13,0,-999,0,7.8,93.4,7.894,7.924,0.2,0,0,8.83,13.22,0.2,101.0223,3.37,3.371,3.37,100,0,0,0,430.9,169.2,169.2
"2022-11-25 01:12:00",3216716,4.352667,149.0485,6.297592,0.6239173,5.29,0,4.038,147.1327,5.35173,0.5622478,5.43,0,-999,0,7.8,93.3,7.896,7.923,0.2,0,0,8.83,13.21,0.2,101.0209,3.369,3.37,3.369,100,0,0,0,430.9,169.2,169.2
"2022-11-25 01:13:00",3216717,4.657333,150.0014,3.669173,0.6670179,5.8,0,3.600667,149.068,5.406139,0.434411,4.13,0,-999,0,7.8,93,7.902,7.922,0.2,0,0,8.85,13.23,0.2,101.0234,3.369,3.37,3.369,100,0,0,0,430.9,169.2,169.2
"2022-11-25 01:14:00",3216718,3.988,147.0585,6.419945,0.401002,4.87,0,3.871333,152.8007,6.479945,0.5140799,4.99,0,-999,0,7.82,93.1,7.911,7.922,0.2,0,0,8.85,13.22,0.2,101.0196,3.369,3.37,3.369,100,0,0,0,430.9,169.2,169.2
"2022-11-25 01:15:00",3216719,4.62,150.6067,5.02599,0.8004581,6.03,0,4.308667,149.7988,3.797371,0.7243745,5.76,0,-999,0,7.813,93.2,7.91,7.922,0.2,0,0,8.86,13.22,0.2,101.0227,3.369,3.369,3.369,100,0,0,0,430.9,169.2,169.2
"2022-11-25 01:16:00",3216720,4.625333,150.5273,5.884588,0.4398161,5.27,0,4.044,152.5979,5.171779,0.6616121,5.49,0,-999,0,7.893,92.4,7.942,7.973,0.2,0,0,8.86,13.24,0.2,101.0207,3.367,3.369,3.367,100,0,0,0,430.9,169.2,169.2
"2022-11-25 01:17:00",3216721,4.013333,149.5318,4.497941,0.3934914,4.79,0,3.425333,148.463,5.688881,0.3820448,4.12,0,-999,0,7.9,92.6,7.952,7.979,0.2,0,0,8.86,13.22,0.2,101.0199,3.369,3.369,3.367,100,0,0,0,430.9,169.2,169.2
"2022-11-25 01:18:00",3216722,4.848,153.6657,4.64238,0.4729793,5.58,0,3.264,152.6639,5.937026,0.3371409,3.8,0,-999,0,7.9,92.7,7.961,7.986,0.2,0,0,8.86,13.21,0.2,101.0228,3.367,3.369,3.367,100,0,0,0,430.9,169.2,169.2
"2022-11-25 01:19:00",3216723,4.978,152.534,3.913437,0.475916,5.57,0,3.797333,150.1998,4.259811,0.713428,4.87,0,-999,0,7.9,92.5,7.97,7.997,0.2,0,0,8.86,13.24,0.2,101.0243,3.366,3.367,3.366,100,0,0,0,430.9,169.2,169.2
"2022-11-25 01:20:00",3216724,4.441333,144.3306,4.26739,0.5173634,5.42,0,3.454667,144.1997,3.448017,0.4872901,4.28,0,-999,0,7.9,92.3,7.984,8.01,0.2,0,0,8.86,13.22,0.2,101.0222,3.366,3.367,3.366,100,0,0,0,430.9,169.2,169.2
"2022-11-25 01:21:00",3216725,4.686,145.8007,5.478259,0.5611749,6.12,0,3.134667,146.9299,3.955802,0.3919841,3.8,0,-999,0,7.933,92,7.983,8.03,0.2,0,0,8.86,13.21,0.2,101.0181,3.366,3.367,3.366,100,0,0,0,430.9,169.2,169.2
"2022-11-25 01:22:00",3216726,4.947333,145.9302,3.470983,0.3909385,5.47,0,3.504667,143.486,6.666412,0.5583771,4.23,0,-999,0,8,91.7,8.01,8.07,0.2,0,0,8.86,13.23,0.2,101.0206,3.366,3.366,3.366,100,0,0,0,430.9,169.2,169.2
"2022-11-25 01:23:00",3216727,4.841333,148.2665,2.719104,0.5143133,5.53,0,3.669333,150.9956,6.021322,0.4681519,4.72,0,-999,0,8,92,8.01,8.08,0.2,0,0,8.86,13.22,0.2,101.0216,3.365,3.366,3.365,100,0,0,0,430.9,169.2,169.2
"2022-11-25 01:24:00",3216728,4.522666,149.5339,3.441553,0.3579845,5.13,0,3.538,149.6016,4.629275,0.6375076,4.73,0,-999,0,7.973,92.2,8.01,8.06,0.2,0,0,8.86,13.21,0.2,101.027,3.365,3.366,3.365,100,0,0,0,430.9,169.2,169.2
"2022-11-25 01:25:00",3216729,4.352,150.1316,4.714604,0.8573307,5.55,0,3.751333,148.5413,5.984728,0.3253894,4.44,0,-999,0,7.98,92.2,8.01,8.04,0.2,0,0,8.86,13.23,0.2,101.0262,3.366,3.366,3.366,100,0,0,0,430.9,169.2,169.2
"2022-11-25 01:26:00",3216730,5.062666,149.4625,4.799231,0.3812517,5.68,0,3.273333,153.2619,5.694993,0.2769035,3.65,0,-999,0,8,91.7,8.04,8.08,0.2,0,0,8.86,13.22,0.2,101.0259,3.365,3.366,3.365,100,0,0,0,430.9,169.2,169.2
"2022-11-25 01:27:00",3216731,5.006,152.4025,4.078207,0.6338117,6.2,0,3.611333,148.2684,4.295427,0.8033171,5.05,0,-999,0,8,91.8,8.05,8.08,0.2,0,0,8.86,13.22,0.2,101.0275,3.366,3.366,3.365,100,0,0,0,430.9,169.2,169.2
"2022-11-25 01:28:00",3216732,4.753334,148.2031,4.259418,0.5532892,5.47,0,3.877333,149.8504,6.842795,0.7332073,5.16,0,-999,0,8,91.7,8.06,8.08,0.2,0,0,8.86,13.22,0.2,101.027,3.365,3.366,3.365,100,0,0,0,430.9,169.2,169.2
"2022-11-25 01:29:00",3216733,4.372666,152.0674,4.264857,0.5171392,5.3,0,3.479333,153.5336,5.792776,0.4084844,4.31,0,-999,0,8,91.7,8.06,8.09,0.2,0,0,8.86,13.25,0.2,101.0282,3.366,3.366,3.366,100,0,0,0,430.9,169.2,169.2
"2022-11-25 01:30:00",3216734,4.901333,154.479,6.47412,0.6459606,5.82,0,3.6,155.7355,4.848121,0.5043676,4.22,0,-999,0,7.987,92.1,8.05,8.07,0.2,0,0,8.86,13.2,0.2,101.0266,3.365,3.366,3.364,100,0,0,0,430.9,169.2,169.2
"2022-11-25 01:31:00",3216735,4.716667,152.8714,5.89455,0.525746,5.46,0,2.967334,153.4711,4.407637,0.3351908,3.53,0,-999,0,8,91.9,8.05,8.07,0.2,0,0,8.86,13.22,0.2,101.0293,3.365,3.365,3.364,100,0,0,0,430.9,169.2,169.2
"2022-11-25 01:32:00",3216736,4.233334,144.7336,3.990396,0.4633741,5.31,0,2.904667,144.5331,4.827813,0.3405655,3.5,0,-999,0,8,91.6,8.05,8.08,0.2,0,0,8.86,13.22,0.2,101.0274,3.364,3.365,3.364,100,0,0,0,430.9,169.2,169.2
"2022-11-25 01:33:00",3216737,4.403334,148.2637,4.695129,0.2622636,4.89,0,3.32,147.3993,5.262159,0.5361343,4.18,0,-999,0,7.993,91.8,8.05,8.07,0.2,0,0,8.86,13.23,0.2,101.0269,3.364,3.365,3.364,100,0,0,0,430.9,169.2,169.2
"2022-11-25 01:34:00",3216738,4.710666,150.2006,3.036937,0.3882519,5.45,0,3.814667,150.2641,3.334088,0.3472534,4.4,0,-999,0,8,91.7,8.06,8.08,0.2,0,0,8.86,13.23,0.2,101.0263,3.364,3.364,3.364,100,0,0,0,430.9,169.2,169.2
"2022-11-25 01:35:00",3216739,4.184,154.3925,5.78898,0.4306707,4.99,0,3.388667,154.6668,3.457307,0.5383662,4.35,0,-999,0,7.993,91.8,8.06,8.08,0.2,0,0,8.87,13.23,0.2,101.0296,3.364,3.365,3.364,100,0,0,0,430.9,169.2,169.2
"2022-11-25 01:36:00",3216740,4.804667,158.6013,3.894706,0.6205038,5.81,0,3.214,160.3358,6.060077,0.3994296,4.14,0,-999,0,7.987,92,8.06,8.07,0.2,0,0,8.87,13.23,0.2,101.0328,3.364,3.364,3.364,100,0,0,0,430.9,169.2,169.2
"2022-11-25 01:37:00",3216741,4.656,156.5992,7.937117,0.5458669,5.9,0,4.056,158.0644,5.03653,0.6103966,5.28,0,-999,0,8,91.3,8.07,8.1,0.2,0,0,8.87,13.22,0.2,101.0363,3.364,3.364,3.363,100,0,0,0,430.9,169.2,169.2
"2022-11-25 01:38:00",3216742,5.14,153.2675,3.973878,0.6292323,6.17,0,3.315333,151.465,5.474842,0.5746752,4.39,0,-999,0,8,91.2,8.1,8.11,0.2,0,0,8.87,13.22,0.2,101.0302,3.364,3.364,3.364,100,0,0,0,430.9,169.2,169.2
"2022-11-25 01:39:00",3216743,5.014667,149.8668,2.679426,0.6830603,5.91,0,4.297333,150.266,3.67772,0.5366745,5.35,0,-999,0,8,91.1,8.12,8.13,0.2,0,0,8.87,13.22,0.2,101.0308,3.364,3.364,3.364,100,0,0,0,430.9,169.2,169.2
"2022-11-25 01:40:00",3216744,5.341333,150.267,3.020819,0.3760295,6.05,0,3.624,148.6642,4.465312,0.4844214,4.33,0,-999,0,8.07,90.8,8.14,8.17,0.2,0,0,8.87,13.22,0.2,101.0281,3.364,3.364,3.364,100,0,0,0,430.9,169.2,169.2
"2022-11-25 01:41:00",3216745,4.488,149.7294,5.540749,0.4445402,5.41,0,4.02,147.5358,5.186716,0.5977067,4.89,0,-999,0,8.1,91.2,8.14,8.17,0.2,0,0,8.87,13.22,0.2,101.0279,3.364,3.364,3.364,100,0,0,0,430.9,169.2,169.2
"2022-11-25 01:42:00",3216746,5.048666,151.6014,4.895342,0.6681603,5.84,0,4.880667,145.3979,6.147965,0.5539491,5.7,0,-999,0,8.09,91.6,8.15,8.17,0.2,0,0.254,8.87,13.21,0.2,101.0321,3.363,3.364,3.363,100,0,0,0,430.9,169.2,169.2
"2022-11-25 01:43:00",3216747,5.374,153.4012,4.238682,0.316329,6.01,0,4.686,148.6008,5.387052,0.5140662,5.47,0,-999,0,8.1,90.9,8.17,8.2,0.2,0,0,8.88,13.22,0.2,101.034,3.363,3.363,3.363,100,0,0,0,430.9,169.2,169.2
"2022-11-25 01:44:00",3216748,5.049334,154.267,3.957142,0.5029575,5.89,0,3.758,153.5956,7.018919,0.4564238,4.76,0,-999,0,8.11,90.8,8.2,8.23,0.2,0,0,8.88,13.22,0.2,101.0338,3.362,3.363,3.362,100,0,0,0,430.9,169.2,169.2
"2022-11-25 01:45:00",3216749,4.221334,154.7988,4.383584,0.3237255,4.79,0,4.506667,155.6661,4.999256,0.5519984,5.31,0,-999,0,8.13,91.2,8.2,8.23,0.2,0,0,8.88,13.22,0.2,101.0352,3.362,3.363,3.362,100,0,0,0,430.9,169.2,169.2
"2022-11-25 01:46:00",3216750,5.24,152.934,4.403243,0.2777529,5.82,0,3.971333,149.1995,3.850017,0.4971635,4.71,0,-999,0,8.1,91.7,8.2,8.2,0.2,0,0,8.88,13.25,0.2,101.0338,3.362,3.362,3.362,100,0,0,0,430.9,169.2,169.2
"2022-11-25 01:47:00",3216751,5.260666,153.3996,3.573724,0.3535245,5.94,0,4.092667,150.6627,4.808382,0.4952639,4.97,0,-999,0,8.1,91.2,8.21,8.23,0.2,0,0,8.88,13.22,0.2,101.0316,3.362,3.362,3.362,100,0,0,0,430.9,169.2,169.2